Printer-friendly version

IAU Minor Planet Center

Minor Planet Center

MPEC 2001-E01: 2000 SH8

The following Minor Planet Electronic Circular may be linked-to from your own Web pages, but must not otherwise be redistributed electronically.


Read MPEC 2001-D46 Read MPEC 2001-E02


M.P.E.C. 2001-E01                                Issued 2001 Mar. 1, 05:00 UT

     The Minor Planet Electronic Circulars contain information on unusual
         minor planets and routine data on comets.  They are published
   on behalf of Commission 20 of the International Astronomical Union by the
          Minor Planet Center, Smithsonian Astrophysical Observatory,
                          Cambridge, MA 02138, U.S.A.

             Prepared using the Tamkin Foundation Computer Network

                              MPC@CFA.HARVARD.EDU
          URL http://cfa-www.harvard.edu/iau/mpc.html  ISSN 1523-6714

                                   2000 SH8

                           Revision to MPEC 2000-S44

Observations:
     K00S08H  C2001 02 28.03481 15 00 09.38 -05 31 46.4          18.5 R      046
     K00S08H  C2001 02 28.04443 15 00 06.53 -05 32 23.3                      046
     K00S08H  C2001 02 28.04743 15 00 05.73 -05 32 34.3          18.4 R      046
     K00S08H  C2001 02 28.05249 15 00 04.18 -05 32 52.8                      046
     K00S08H  C2001 02 28.05356 15 00 03.90 -05 32 56.6          18.3 R      046
     K00S08H  C2001 02 28.06332 15 00 01.09 -05 33 33.7                      046
     K00S08H  C2001 02 28.06625 15 00 00.20 -05 33 45.2                      046
     K00S08H  C2001 03 01.14097 14 54 43.49 -06 41 34.6          18.1 R      046
     K00S08H  C2001 03 01.14193 14 54 43.28 -06 41 38.4                      046
     K00S08H  C2001 03 01.14470 14 54 42.41 -06 41 49.3          17.9 R      046
     K00S08H  C2001 03 01.14572 14 54 42.09 -06 41 53.9                      046

Observer details:
046 Klet.  Observers M. Tichy, M. Kocer.  0.57-m f/5.2 reflector + CCD.

First and last observations above in comparison with prediction:
Residuals in seconds of arc, reference and Delta-T
010228 046  3.3+  9.3-    010301 046  3.6+ 10.7-    MPO  7563   +0.00050 day

Orbital elements:
2000 SH8
Epoch 2001 Apr. 1.0 TT = JDT 2452000.5                  Marsden
M  49.73385              (2000.0)            P               Q
n   0.44927950     Peri.   86.33368     +0.04500047     -0.99858051
a   1.6883338      Node     1.96095     +0.17811699     -0.02004601
e   0.4893678      Incl.   56.37914     +0.98297980     +0.04934703
P   2.19           H   18.8           G   0.15           U   3
Residuals in seconds of arc
000921 704  0.1+  0.4+    000923 967  0.1+  0.4-    000927 691  0.2-  0.9+
000921 704  0.3+  0.6-    000924 808  0.3+  1.5+    000927 691  0.1+  1.9+
000921 704  0.0   0.1-    000924 808  1.0+  0.9+    000927 691  0.3-  0.6+
000921 704  0.1-  0.1-    000924 808  0.1+  1.8-    000927 360  0.3+  0.6-
000922 808  1.1-  0.6-    000924 808  0.3-  0.5-    000927 360  0.2+  0.5-
000922 860  0.3+  0.1-    000924 808  0.1+  0.2+    000927 360  0.1+  0.4-
000922 860  0.1-  0.9-    000924 860  0.5-  0.3+    000927 900  0.3+  0.3-
000922 860  0.6-  0.2+    000924 860  1.5-  0.1+    000927 900  0.3+  0.4-
000922 860  0.5-  0.1+    000924 860  0.4+  0.2+    000927 118  0.2-  0.4-
000922 704  0.5+  0.0     000924 808  0.5+  0.9+    000927 118  0.1-  0.5-
000922 704  0.1+  0.2+    000924 808 (2.1+  3.1-)   000927 118  0.1-  0.3-
000922 151  0.6-  0.9-    000924 808  1.2+  1.8-    000928 118  0.4+  0.7-
000922 151  0.5-  0.7-    000924 808  1.0-  0.3-    000928 118  0.6+  0.5-
000922 151  0.3-  0.7-    000924 808 (0.1-  3.2+)   000928 118  0.3+  0.2-
000922 151  1.0-  0.1-    000924 704  0.4-  0.4+    000930 046  0.7-  0.1+
000922 151  1.4-  0.1-    000924 704  0.0   0.1+    000930 046  0.7-  0.0
000922 151  0.4-  0.8-    000924 704  0.1-  0.9+    000930 046  0.4-  0.2-
000923 808  0.1+  0.6+    000924 704  0.2+  0.4+    000930 046  0.0   0.3-
000923 808  1.9+  0.5-    000924 704  0.2+  0.0     000930 046  1.0-  0.0
000923 808  1.0-  1.6+    000924 704  0.3+  0.4+    001004 704  0.2+  0.2+
000923 808  0.5-  1.7-    000924 704  0.0   0.0     001004 704  0.0   0.2-
000923 853  0.9+  0.4+    000924 704  0.1-  0.1+    001004 704  0.0   0.2+
000923 853  0.7+  0.3+    000924 704  0.4+  0.2+    001004 704  0.1+  0.3+
000923 853  0.8+  0.1+    000924 704  0.4+  0.4+    001004 704  0.3+  0.1+
000923 704  0.2+  0.1+    000924 704  0.6+  0.2+    001004 118  0.0   0.1-
000923 704  0.5+  0.6+    000924 704  0.4+  0.2-    001004 118  0.4+  0.3-
000923 704  0.0   0.1+    000924 704  0.3+  0.1+    001004 118  0.3+  0.1-
000923 704  0.2+  0.5+    000924 704  0.5+  0.4-    001123 696  0.1+  0.5+
000923 704  0.2+  0.0     000925 859  0.3-  0.0     001123 696  0.6+  0.1-
000923 704  0.3+  0.3+    000925 859  1.0+  0.7-    010228 046  0.0   0.4+
000923 704  0.1-  0.0     000925 859  0.5-  0.3+    010228 046  0.7-  0.4-
000923 704  0.2-  0.3+    000925 704  0.4-  0.3+    010228 046  0.4+  0.2-
000923 704  0.0   0.0     000925 670  0.3+  0.1-    010228 046  0.7-  0.3+
000923 108  0.2+  0.8+    000925 704  0.1-  0.1+    010228 046  0.2-  0.5+
000923 108 (0.2+  2.2+)   000925 704  0.8+  1.5+    010228 046  0.3+  0.0
000923 108 (3.0+  0.2-)   000925 704  0.7+  0.5+    010228 046  0.2-  0.5-
000923 108 (2.8+  1.1-)   000925 704  0.3+  0.3+    010301 046  0.6-  0.3+
000923 967  0.8+  0.4-    000925 670  0.1-  0.4-    010301 046  0.6+  0.2+
000923 967  0.1+  1.5-    000926 118  0.8-  0.2-    010301 046  0.3+  0.1-
000923 967  0.3-  0.8-    000926 118  0.9-  0.1-    010301 046  0.2+  0.8-
000923 967  1.0-  0.2-    000926 118  0.9-  0.4+
000923 967  0.0   0.1+    000927 691  0.4-  1.0+

Ephemeris:
2000 SH8                 a,e,i = 1.69, 0.49, 56                  q = 0.8621
Date    TT    R. A. (2000) Decl.     Delta      r     Elong.  Phase     V
2001 02 20    15 32.43   +02 05.2    0.540    1.210   100.5    53.5    19.8
2001 02 25    15 13.75   -02 28.2    0.501    1.247   109.1    48.6    19.6
2001 03 02    14 50.34   -07 36.4    0.469    1.284   118.7    42.6    19.4
2001 03 07    14 21.65   -13 09.0    0.448    1.321   129.0    35.7    19.1
2001 03 12    13 47.90   -18 40.8    0.441    1.358   139.2    28.5    18.9
2001 03 17    13 10.57   -23 36.3    0.448    1.395   147.8    22.4    18.9
2001 03 22    12 32.42   -27 25.2    0.472    1.432   152.4    18.8    18.9
2001 03 27    11 56.67   -29 56.9    0.510    1.468   151.9    18.7    19.1
2001 04 01    11 25.69   -31 21.4    0.560    1.503   147.7    20.8    19.5
2001 04 06    11 00.45   -31 57.9    0.620    1.539   142.2    23.5    19.8
2001 04 11    10 40.77   -32 04.8    0.687    1.573   136.4    26.0    20.2
2001 04 16    10 25.92   -31 55.4    0.760    1.607   130.9    28.1    20.5
2001 04 21    10 15.08   -31 38.6    0.836    1.641   125.8    29.8    20.8
2001 04 26    10 07.47   -31 19.8    0.916    1.674   121.0    31.0    21.1
2001 05 01    10 02.45   -31 02.2    0.997    1.706   116.6    31.9    21.3
2001 05 06    09 59.50   -30 47.5    1.080    1.738   112.6    32.4    21.5
2001 05 11    09 58.20   -30 36.6    1.164    1.769   108.7    32.7    21.7

                       (Last issue was M.P.E.C. 2001-D46)

Brian G. Marsden             (C) Copyright 2001 MPC           M.P.E.C. 2001-E01

Read MPEC 2001-D46 Read MPEC 2001-E02


Our Web policy. Index to the CBAT/MPC/ICQ pages.


Valid HTML 4.01!